Location: Newark
(13.6797°N, 8.5297°E)
Time: 15:37:53
(UTC+00:00)

Altair - Pass Details

Date: 26 January 2020
Orbit: 1502 x 1682 km, 47.2° (Epoch: 24 February)

Event Time Altitude Azimuth Distance (km) Brightness Sun altitude
Rises 03:08:17 0° 176° (S) 4,723 10.2 -39.5°
Reaches altitude 10° 03:14:04 10° 148° (SSE) 3,784 10.0 -38.1°
Maximum altitude 03:17:36 12° 126° (SE) 3,620 10.0 -37.3°
Drops below altitude 10° 03:21:09 10° 104° (ESE) 3,840 10.3 -36.5°
Sets 03:27:03 0° 78° (ENE) 4,868 10.9 -35.1°
